QPF
0.00 0.00 0.01 0.00 0.00 0.00 0.00 0.00 0.00 0.00 0.00 0.00 0.00 0.00 0.00 0.04 0.05 0.00 0.00 0.00 0.01 0.01 0.00 0.01 0.00 0.00 0.00 0.00 0.00 0.00 0.00 0.00 0.00 0.00 0.00 0.01 0.01 0.01 0.00 0.00 0.00 0.00 0.00
0.00 0.00 0.00 0.00 0.00 0.00 0.00 0.00 0.00 0.00 0.00 0.00 0.00 0.00 0.00 0.03 0.01 0.00 0.00 0.00 0.01 0.00 0.01 0.01 0.00 0.00 0.00 0.00 0.00 0.00 0.00 0.00 0.00 0.00 0.00 0.00 0.00 0.00 0.00 0.00 0.00 0.00 0.00
0.00 0.01 0.00 0.00 0.00 0.00 0.00 0.00 0.00 0.00 0.00 0.00 0.00 0.00 0.01 0.04 0.01 0.00 0.00 0.00 0.00 0.00 0.01 0.01 0.00 0.00 0.00 0.00 0.00 0.00 0.00 0.00 0.00 0.00 0.00 0.00 0.00 0.00 0.00 0.00 0.00 0.00 0.01
0.00 0.01 0.00 0.00 0.00 0.00 0.00 0.00 0.00 0.00 0.00 0.00 0.01 0.01 0.03 0.06 0.00 0.00 0.00 0.00 0.00 0.01 0.01 0.00 0.00 0.00 0.00 0.00 0.00 0.00 0.00 0.00 0.00 0.00 0.00 0.00 0.00 0.00 0.00 0.00 0.00 0.00 0.00
0.02 0.01 0.00 0.00 0.00 0.00 0.00 0.00 0.00 0.00 0.01 0.01 0.01 0.04 0.06 0.06 0.00 0.00 0.00 0.00 0.00 0.00 0.00 0.00 0.00 0.00 0.00 0.00 0.00 0.00 0.00 0.00 0.00 0.00 0.00 0.00 0.00 0.00 0.00 0.00 0.00 0.00 0.00
0.03 0.03 0.01 0.00 0.00 0.00 0.00 0.00 0.00 0.00 0.01 0.02 0.03 0.08 0.08 0.03 0.00 0.00 0.00 0.00 0.00 0.01 0.01 0.00 0.00 0.00 0.00 0.00 0.00 0.00 0.00 0.00 0.00 0.00 0.00 0.00 0.00 0.00 0.00 0.00 0.00 0.00 0.00
0.02 0.04 0.01 0.01 0.00 0.00 0.00 0.00 0.01 0.01 0.02 0.05 0.06 0.06 0.04 0.00 0.00 0.00 0.00 0.00 0.01 0.01 0.00 0.00 0.00 0.00 0.00 0.00 0.00 0.00 0.00 0.00 0.00 0.00 0.00 0.00 0.00 0.00 0.00 0.00 0.00 0.00 0.00
0.04 0.07 0.02 0.02 0.01 0.00 0.00 0.00 0.01 0.01 0.03 0.06 0.06 0.05 0.01 0.00 0.00 0.00 0.00 0.01 0.01 0.01 0.00 0.00 0.00 0.00 0.00 0.00 0.00 0.00 0.00 0.00 0.00 0.00 0.00 0.00 0.00 0.00 0.00 0.00 0.00 0.00 0.00
0.05 0.07 0.03 0.02 0.02 0.00 0.00 0.00 0.02 0.01 0.03 0.04 0.03 0.02 0.01 0.00 0.00 0.01 0.01 0.01 0.01 0.01 0.00 0.00 0.00 0.00 0.00 0.00 0.00 0.00 0.00 0.00 0.00 0.00 0.00 0.00 0.00 0.00 0.00 0.00 0.00 0.00 0.00
0.40 0.13 0.06 0.04 0.01 0.00 0.00 0.00 0.00 0.01 0.01 0.01 0.01 0.00 0.00 0.00 0.00 0.01 0.01 0.01 0.01 0.01 0.00 0.00 0.00 0.00 0.00 0.00 0.00 0.00 0.00 0.00 0.00 0.00 0.00 0.00 0.00 0.00 0.00 0.00 0.00 0.00 0.00
0.99 0.46 0.13 0.06 0.01 0.00 0.00 0.00 0.00 0.00 0.01 0.00 0.00 0.00 0.00 0.00 0.00 0.00 0.00 0.00 0.01 0.00 0.00 0.00 0.00 0.00 0.00 0.00 0.00 0.00 0.00 0.00 0.00 0.00 0.00 0.00 0.00 0.00 0.00 0.00 0.00 0.00 0.00
1.30 0.75 0.45 0.07 0.00 0.00 0.00 0.00 0.00 0.00 0.00 0.00 0.00 0.00 0.00 0.00 0.00 0.00 0.00 0.00 0.00 0.00 0.00 0.00 0.00 0.00 0.00 0.00 0.00 0.00 0.00 0.00 0.00 0.00 0.00 0.00 0.00 0.00 0.00 0.00 0.00 0.00 0.00
1.01 0.63 0.48 0.16 0.01 0.01 0.01 0.01 0.00 0.00 0.00 0.00 0.00 0.00 0.00 0.00 0.00 0.00 0.00 0.00 0.00 0.00 0.00 0.00 0.00 0.00 0.00 0.00 0.00 0.00 0.00 0.00 0.00 0.00 0.00 0.00 0.00 0.00 0.00 0.00 0.00 0.00 0.01
0.85 0.47 0.34 0.35 0.02 0.01 0.02 0.02 0.01 0.00 0.00 0.00 0.00 0.00 0.00 0.00 0.00 0.00 0.00 0.00 0.00 0.00 0.00 0.00 0.00 0.00 0.00 0.00 0.00 0.00 0.00 0.00 0.00 0.00 0.00 0.00 0.00 0.00 0.00 0.00 0.00 0.00 0.01
0.35 0.78 0.80 0.47 0.06 0.00 0.04 0.05 0.03 0.01 0.00 0.00 0.00 0.00 0.00 0.00 0.00 0.00 0.00 0.00 0.00 0.00 0.00 0.00 0.00 0.00 0.00 0.00 0.00 0.00 0.00 0.00 0.00 0.00 0.00 0.00 0.00 0.00 0.00 0.00 0.01 0.01 0.01
0.16 0.79 1.69 0.72 0.03 0.00 0.02 0.03 0.04 0.02 0.00 0.00 0.00 0.00 0.00 0.00 0.00 0.00 0.00 0.00 0.00 0.00 0.00 0.00 0.00 0.00 0.00 0.00 0.00 0.00 0.00 0.00 0.00 0.00 0.00 0.00 0.00 0.00 0.00 0.00 0.00 0.01 0.05
0.03 0.31 1.21 0.67 0.10 0.01 0.00 0.00 0.02 0.02 0.00 0.00 0.00 0.00 0.00 0.00 0.00 0.00 0.00 0.00 0.00 0.00 0.00 0.00 0.00 0.00 0.00 0.00 0.00 0.00 0.00 0.00 0.00 0.00 0.00 0.00 0.00 0.00 0.00 0.00 0.00 0.01 0.04
0.01 0.15 0.53 0.23 0.24 0.07 0.00 0.00 0.00 0.00 0.00 0.00 0.00 0.00 0.00 0.00 0.00 0.00 0.00 0.00 0.00 0.00 0.00 0.00 0.00 0.00 0.00 0.00 0.00 0.00 0.00 0.00 0.00 0.00 0.00 0.00 0.00 0.00 0.00 0.00 0.00 0.00 0.00
0.00 0.02 0.10 0.10 0.08 0.17 0.07 0.00 0.00 0.00 0.00 0.00 0.00 0.00 0.00 0.00 0.00 0.00 0.00 0.00 0.00 0.00 0.00 0.00 0.00 0.00 0.00 0.00 0.00 0.00 0.00 0.00 0.00 0.00 0.00 0.00 0.00 0.00 0.00 0.00 0.00 0.00 0.00
0.00 0.00 0.01 0.05 0.06 0.08 0.08 0.04 0.00 0.00 0.00 0.00 0.00 0.00 0.00 0.00 0.00 0.00 0.00 0.00 0.00 0.00 0.00 0.00 0.00 0.00 0.00 0.00 0.00 0.00 0.00 0.00 0.00 0.00 0.00 0.00 0.00 0.00 0.00 0.00 0.00 0.00 0.00
0.02 0.01 0.00 0.01 0.04 0.04 0.07 0.05 0.00 0.00 0.00 0.00 0.00 0.00 0.00 0.00 0.00 0.00 0.00 0.00 0.00 0.00 0.00 0.00 0.00 0.00 0.00 0.00 0.00 0.00 0.00 0.00 0.00 0.00 0.00 0.00 0.00 0.00 0.00 0.00 0.00 0.00 0.00
0.03 0.01 0.01 0.04 0.03 0.07 0.13 0.24 0.11 0.04 0.02 0.03 0.00 0.00 0.00 0.00 0.00 0.00 0.00 0.01 0.01 0.00 0.00 0.00 0.01 0.03 0.04 0.02 0.01 0.00 0.00 0.00 0.00 0.00 0.00 0.00 0.00 0.00 0.00 0.00 0.00 0.00 0.00
0.07 0.09 0.05 0.04 0.04 0.06 0.12 0.11 0.16 0.12 0.05 0.01 0.01 0.01 0.00 0.01 0.01 0.00 0.00 0.02 0.02 0.03 0.06 0.06 0.04 0.07 0.10 0.08 0.03 0.00 0.00 0.00 0.00 0.00 0.00 0.00 0.00 0.00 0.00 0.00 0.00 0.00 0.00
0.39 0.32 0.15 0.11 0.07 0.05 0.10 0.07 0.05 0.09 0.11 0.05 0.03 0.03 0.00 0.00 0.00 0.00 0.00 0.01 0.06 0.29 0.34 0.23 0.13 0.07 0.04 0.04 0.02 0.00 0.00 0.00 0.00 0.00 0.00 0.00 0.00 0.00 0.00 0.00 0.00 0.00 0.00
0.53 0.35 0.18 0.10 0.05 0.06 0.07 0.14 0.08 0.06 0.08 0.13 0.08 0.02 0.00 0.00 0.02 0.01 0.01 0.03 0.07 0.19 0.49 0.60 0.46 0.26 0.14 0.07 0.02 0.00 0.00 0.00 0.00 0.00 0.00 0.00 0.00 0.00 0.00 0.00 0.00 0.00 0.00
0.34 0.27 0.14 0.03 0.00 0.03 0.02 0.10 0.11 0.22 0.15 0.11 0.07 0.05 0.02 0.04 0.07 0.08 0.09 0.11 0.17 0.31 0.36 0.36 0.26 0.15 0.07 0.03 0.01 0.00 0.00 0.00 0.00 0.00 0.00 0.00 0.00 0.00 0.00 0.00 0.00 0.00 0.00
MSLP
1007.28 1008.47 1009.52 1009.92 1010.26 1010.66 1010.92 1011.02 1011.25 1011.50 1011.59 1011.84 1012.23 1012.53 1012.87 1013.21 1013.45 1013.74 1013.94 1014.20 1014.43 1014.54 1014.74 1015.06 1015.27 1015.31 1015.53 1015.75 1015.88 1016.05 1016.08 1016.14 1016.26 1016.30 1016.36 1016.33 1016.20 1016.31 1016.20 1016.11 1015.91 1015.98 1016.20
1007.25 1008.42 1009.62 1009.94 1010.35 1010.62 1010.98 1011.10 1011.29 1011.54 1011.69 1011.89 1012.30 1012.66 1013.10 1013.41 1013.65 1013.93 1014.19 1014.38 1014.60 1014.80 1014.94 1015.36 1015.70 1015.89 1016.00 1016.17 1016.36 1016.47 1016.59 1016.60 1016.57 1016.61 1016.53 1016.54 1016.65 1016.63 1016.61 1016.59 1016.45 1016.49 1016.45
1007.68 1008.52 1009.54 1009.96 1010.41 1010.70 1011.01 1011.19 1011.37 1011.62 1011.80 1011.97 1012.34 1012.71 1013.18 1013.50 1013.83 1014.16 1014.39 1014.64 1014.80 1014.99 1015.24 1015.53 1015.97 1016.29 1016.51 1016.67 1016.75 1016.90 1017.01 1016.98 1016.73 1016.58 1016.57 1016.46 1017.00 1017.08 1016.99 1016.96 1016.92 1016.84 1016.80
1008.09 1008.83 1009.26 1010.06 1010.50 1010.81 1011.03 1011.34 1011.43 1011.70 1011.95 1012.13 1012.38 1012.78 1013.24 1013.78 1014.08 1014.35 1014.65 1014.87 1015.07 1015.24 1015.49 1015.92 1016.30 1016.54 1016.74 1016.94 1017.06 1017.20 1017.27 1017.25 1016.98 1016.70 1016.19 1016.48 1017.01 1017.54 1017.45 1017.35 1017.34 1017.23 1017.19
1008.67 1008.97 1009.37 1010.16 1010.62 1010.87 1011.18 1011.42 1011.51 1011.73 1012.00 1012.26 1012.56 1012.95 1013.43 1013.83 1014.26 1014.60 1014.88 1015.07 1015.33 1015.54 1015.97 1016.32 1016.58 1016.74 1016.97 1017.12 1017.30 1017.36 1017.44 1017.32 1017.10 1016.76 1016.85 1017.02 1017.29 1017.83 1017.82 1017.74 1017.67 1017.73 1017.75
1008.77 1009.00 1009.89 1010.40 1010.74 1010.97 1011.27 1011.47 1011.61 1011.81 1012.13 1012.35 1012.75 1013.12 1013.58 1014.02 1014.45 1014.80 1015.03 1015.35 1015.59 1016.01 1016.32 1016.54 1016.75 1017.02 1017.19 1017.32 1017.46 1017.62 1017.59 1017.46 1017.42 1016.99 1017.20 1017.56 1017.92 1018.15 1018.17 1018.18 1018.20 1018.18 1018.17
1008.76 1009.21 1009.98 1010.68 1010.93 1011.14 1011.38 1011.62 1011.61 1011.82 1012.22 1012.58 1012.95 1013.35 1013.68 1014.07 1014.62 1015.03 1015.34 1015.68 1015.91 1016.14 1016.56 1016.77 1016.96 1017.23 1017.41 1017.59 1017.67 1017.82 1017.90 1017.62 1016.97 1017.16 1017.27 1017.74 1018.28 1018.40 1018.45 1018.49 1018.48 1018.46 1018.38
1008.70 1009.39 1009.72 1010.85 1011.26 1011.42 1011.52 1011.81 1011.86 1011.93 1012.30 1012.80 1013.18 1013.60 1013.87 1014.20 1014.76 1015.25 1015.60 1015.99 1016.23 1016.42 1016.82 1016.99 1017.20 1017.40 1017.66 1017.84 1017.99 1018.09 1018.04 1017.84 1017.16 1017.33 1017.49 1018.14 1018.61 1018.63 1018.70 1018.73 1018.68 1018.64 1018.62
1008.78 1009.58 1009.87 1010.55 1011.38 1011.78 1011.89 1012.01 1012.20 1012.29 1012.65 1013.01 1013.42 1013.84 1014.14 1014.64 1015.07 1015.54 1015.85 1016.15 1016.40 1016.67 1017.04 1017.25 1017.43 1017.61 1017.78 1017.96 1018.20 1018.29 1018.26 1017.98 1017.45 1017.57 1017.44 1018.06 1018.68 1018.71 1018.82 1018.88 1018.90 1018.92 1018.95
1010.28 1010.05 1010.26 1010.38 1011.08 1011.64 1012.12 1012.30 1012.47 1012.70 1013.08 1013.38 1013.73 1013.86 1014.60 1015.05 1015.53 1015.73 1016.10 1016.30 1016.61 1016.84 1017.23 1017.50 1017.62 1017.76 1017.94 1018.14 1018.30 1018.44 1018.43 1018.18 1017.40 1017.69 1017.70 1018.43 1018.71 1018.74 1018.87 1018.99 1019.09 1019.14 1019.18
1011.07 1012.70 1010.95 1010.71 1010.65 1011.00 1011.77 1012.51 1012.71 1013.03 1013.41 1013.69 1013.91 1014.50 1014.91 1015.25 1015.70 1016.10 1016.23 1016.57 1016.81 1017.15 1017.42 1017.65 1017.81 1018.00 1018.10 1018.20 1018.35 1018.45 1018.39 1017.51 1017.34 1017.43 1017.52 1018.50 1018.76 1018.75 1018.89 1019.01 1019.07 1019.16 1019.26
1009.93 1011.34 1012.61 1010.48 1010.00 1010.11 1011.20 1012.41 1012.51 1012.78 1013.12 1013.16 1013.80 1014.52 1014.68 1014.94 1015.21 1015.43 1016.48 1016.95 1017.12 1017.41 1017.63 1017.81 1017.98 1018.08 1018.09 1017.48 1017.95 1018.37 1017.88 1017.34 1017.36 1017.53 1017.77 1018.50 1018.73 1018.81 1018.79 1018.91 1019.04 1019.21 1019.27
1009.38 1011.41 1011.98 1010.62 1009.43 1009.43 1010.71 1011.65 1012.00 1012.48 1012.69 1012.89 1013.62 1014.03 1014.04 1014.54 1015.34 1015.69 1016.55 1016.91 1017.22 1017.65 1017.54 1017.76 1017.96 1017.68 1017.18 1016.96 1017.07 1017.11 1017.24 1017.38 1017.19 1017.39 1018.01 1018.47 1018.70 1018.72 1018.69 1018.68 1018.72 1018.90 1019.10
1010.78 1011.07 1010.59 1009.78 1008.79 1009.14 1009.78 1010.91 1011.28 1011.59 1012.03 1012.47 1013.23 1013.43 1013.79 1014.22 1015.12 1015.33 1015.88 1016.19 1016.41 1016.95 1016.53 1016.82 1016.81 1016.78 1017.01 1017.06 1016.97 1017.04 1017.21 1017.27 1017.19 1017.26 1017.68 1018.25 1018.53 1018.62 1018.62 1018.60 1018.59 1018.60 1018.65
1008.53 1009.72 1010.41 1009.36 1007.68 1008.78 1010.04 1010.97 1010.77 1011.02 1011.71 1012.28 1012.85 1013.37 1013.87 1014.35 1014.78 1015.05 1015.34 1015.72 1015.96 1016.16 1016.30 1016.55 1016.67 1016.73 1016.84 1016.85 1016.92 1017.02 1016.89 1016.80 1016.81 1016.94 1017.12 1017.85 1018.25 1018.51 1018.54 1018.50 1018.41 1018.35 1018.34
1008.24 1009.07 1010.06 1010.05 1008.67 1009.06 1010.25 1011.02 1011.57 1011.26 1011.39 1012.26 1013.07 1013.71 1014.04 1014.43 1014.81 1015.21 1015.43 1015.76 1015.99 1016.37 1016.35 1016.38 1016.38 1016.51 1016.53 1016.67 1016.59 1016.62 1016.60 1016.63 1016.75 1016.83 1016.88 1017.25 1017.61 1018.00 1018.19 1018.23 1018.25 1018.14 1018.10
1006.98 1008.55 1009.58 1010.06 1009.82 1010.07 1010.25 1010.76 1011.33 1011.66 1011.94 1012.57 1012.97 1013.64 1013.97 1014.43 1014.77 1015.17 1015.35 1015.82 1016.01 1016.28 1016.40 1016.50 1016.27 1016.30 1016.38 1016.38 1016.55 1016.51 1016.64 1016.50 1016.37 1016.39 1016.51 1016.67 1017.27 1017.48 1017.65 1017.73 1017.87 1017.98 1018.05
1008.16 1008.28 1010.04 1011.01 1010.68 1010.44 1011.00 1011.20 1010.94 1011.00 1011.56 1012.48 1012.87 1013.41 1013.89 1014.38 1014.79 1015.20 1015.39 1015.62 1015.83 1016.03 1016.29 1016.35 1016.38 1016.46 1016.42 1016.37 1016.39 1016.32 1016.47 1016.40 1016.42 1016.37 1016.42 1016.61 1016.74 1016.82 1017.40 1017.45 1017.63 1017.80 1017.90
1008.50 1008.30 1009.52 1010.22 1010.86 1010.80 1011.12 1011.32 1011.29 1011.46 1011.69 1012.09 1012.48 1013.16 1013.73 1014.18 1014.72 1015.01 1015.11 1015.25 1015.45 1015.77 1015.94 1016.17 1016.22 1016.27 1016.28 1016.33 1016.26 1016.08 1016.41 1016.31 1016.18 1016.17 1016.27 1016.60 1016.80 1017.07 1017.19 1017.43 1017.58 1017.61 1017.78
1008.18 1008.74 1009.15 1010.24 1010.58 1011.24 1011.29 1011.43 1011.15 1011.48 1011.93 1012.11 1012.31 1012.72 1013.21 1013.85 1014.43 1014.83 1014.99 1015.19 1015.39 1015.69 1015.60 1015.80 1016.14 1016.07 1016.08 1016.03 1016.38 1016.24 1016.33 1016.23 1016.28 1016.36 1016.48 1016.78 1016.98 1017.35 1017.32 1017.28 1017.26 1017.73 1017.77
1008.18 1008.60 1009.40 1010.20 1011.05 1011.41 1011.14 1011.31 1011.35 1011.47 1011.61 1012.02 1012.44 1012.69 1013.14 1013.61 1014.02 1014.47 1014.74 1015.02 1015.34 1015.52 1015.53 1015.65 1015.75 1015.87 1016.01 1016.15 1016.41 1016.24 1016.17 1016.11 1016.18 1016.53 1016.78 1016.88 1017.08 1017.49 1017.67 1017.51 1017.32 1017.39 1017.97
1008.08 1008.94 1009.45 1009.98 1010.40 1011.02 1011.24 1011.02 1010.96 1011.41 1011.79 1012.35 1012.70 1012.91 1013.18 1013.42 1013.77 1014.32 1014.78 1015.09 1015.55 1015.68 1015.65 1015.73 1015.72 1016.10 1016.04 1016.05 1016.33 1016.24 1016.31 1015.98 1016.25 1016.84 1016.95 1017.26 1017.34 1017.54 1017.72 1017.88 1017.80 1017.95 1018.13
1008.42 1009.52 1009.88 1010.42 1011.21 1011.23 1011.15 1011.22 1011.47 1011.66 1012.15 1012.50 1012.70 1013.13 1013.26 1013.37 1013.81 1014.40 1014.68 1015.09 1015.53 1015.81 1016.02 1015.93 1016.15 1016.57 1016.61 1016.82 1016.90 1016.66 1016.33 1016.15 1016.33 1016.35 1016.95 1017.28 1017.50 1017.70 1017.83 1018.14 1018.20 1018.38 1018.73
1009.15 1009.52 1009.88 1010.32 1011.28 1011.76 1011.68 1011.65 1011.77 1011.86 1012.24 1012.21 1012.62 1013.40 1013.56 1013.74 1014.24 1014.67 1014.73 1014.94 1015.60 1015.82 1016.39 1016.52 1016.74 1017.23 1016.97 1017.09 1017.13 1017.12 1017.04 1017.16 1017.10 1016.88 1017.00 1017.17 1017.59 1017.87 1018.05 1017.93 1018.27 1018.72 1019.14
1009.48 1009.82 1010.25 1010.77 1011.33 1011.37 1011.73 1011.95 1012.12 1012.49 1012.67 1012.72 1013.06 1013.66 1013.95 1014.06 1014.16 1014.51 1014.58 1014.93 1015.44 1016.14 1016.12 1016.47 1016.74 1017.56 1017.46 1017.50 1017.61 1017.46 1017.49 1017.66 1017.73 1017.73 1017.30 1017.08 1017.66 1017.89 1018.26 1018.14 1018.44 1018.59 1019.17
1010.12 1010.40 1010.60 1010.86 1010.84 1011.06 1011.17 1011.34 1011.63 1012.06 1012.42 1013.22 1013.57 1013.75 1014.19 1014.33 1014.35 1014.15 1014.54 1014.53 1014.92 1015.85 1015.88 1015.70 1016.88 1017.14 1017.55 1017.84 1017.63 1017.94 1017.67 1017.71 1017.71 1017.75 1017.72 1017.58 1017.85 1017.86 1018.22 1018.43 1018.83 1019.07 1019.53
Thickness
5782 5778 5771 5770 5770 5769 5768 5769 5768 5765 5765 5764 5761 5758 5756 5754 5753 5750 5749 5747 5745 5744 5742 5739 5737 5736 5735 5733 5733 5732 5732 5732 5732 5732 5731 5731 5731 5730 5730 5730 5730 5728 5726
5782 5774 5768 5767 5766 5766 5764 5765 5765 5763 5763 5762 5759 5756 5753 5751 5750 5748 5745 5744 5742 5741 5739 5736 5732 5731 5730 5730 5729 5728 5728 5729 5730 5729 5730 5730 5728 5727 5726 5726 5726 5724 5723
5773 5769 5764 5765 5763 5763 5762 5762 5762 5761 5760 5759 5757 5754 5750 5749 5747 5745 5743 5741 5740 5739 5736 5734 5730 5727 5726 5725 5725 5724 5724 5725 5728 5729 5729 5729 5724 5723 5723 5722 5722 5721 5720
5765 5762 5762 5759 5758 5758 5759 5758 5759 5758 5757 5756 5755 5752 5749 5744 5744 5743 5740 5738 5737 5736 5734 5730 5727 5725 5724 5723 5722 5722 5721 5722 5725 5727 5730 5728 5723 5719 5718 5718 5717 5717 5716
5756 5756 5756 5753 5753 5754 5754 5754 5755 5755 5754 5753 5751 5749 5745 5743 5740 5739 5737 5735 5734 5732 5729 5726 5724 5723 5721 5721 5719 5719 5720 5721 5723 5725 5724 5722 5720 5715 5715 5715 5714 5713 5711
5749 5749 5747 5746 5746 5748 5749 5750 5750 5751 5749 5749 5746 5744 5742 5740 5737 5735 5733 5732 5730 5727 5725 5723 5722 5720 5718 5718 5717 5716 5717 5719 5720 5721 5720 5717 5714 5712 5712 5711 5710 5709 5708
5743 5742 5740 5738 5740 5742 5744 5744 5746 5746 5745 5743 5742 5739 5739 5738 5733 5731 5729 5726 5726 5725 5722 5720 5719 5717 5716 5715 5715 5714 5714 5717 5720 5719 5718 5714 5710 5709 5708 5707 5707 5706 5706
5737 5736 5735 5731 5731 5733 5737 5737 5740 5741 5740 5738 5736 5734 5734 5734 5730 5726 5724 5722 5721 5721 5718 5717 5715 5714 5712 5711 5711 5711 5712 5714 5717 5716 5715 5710 5706 5705 5704 5704 5704 5703 5702
5728 5725 5727 5725 5723 5724 5727 5730 5731 5734 5732 5732 5731 5729 5729 5726 5724 5721 5720 5718 5717 5716 5714 5713 5711 5710 5709 5708 5707 5707 5709 5711 5714 5712 5713 5708 5703 5702 5701 5700 5699 5698 5697
5705 5713 5716 5717 5717 5718 5718 5721 5724 5725 5723 5724 5724 5726 5722 5719 5716 5716 5714 5714 5712 5711 5710 5708 5707 5707 5706 5704 5703 5704 5705 5707 5711 5709 5709 5704 5701 5700 5698 5697 5695 5694 5692
5678 5669 5699 5707 5711 5713 5713 5712 5715 5716 5716 5716 5717 5715 5714 5713 5711 5709 5710 5709 5708 5707 5705 5704 5703 5703 5703 5702 5701 5701 5703 5708 5709 5709 5708 5701 5698 5698 5696 5695 5694 5692 5690
5666 5663 5661 5697 5708 5712 5709 5706 5710 5712 5712 5715 5712 5708 5710 5711 5711 5711 5704 5702 5702 5702 5701 5700 5700 5699 5701 5704 5701 5699 5702 5706 5706 5705 5704 5699 5696 5694 5694 5692 5691 5689 5687
5678 5650 5663 5682 5702 5711 5705 5703 5706 5708 5709 5711 5708 5708 5710 5709 5704 5705 5700 5699 5698 5696 5697 5698 5696 5699 5702 5704 5704 5703 5702 5702 5704 5703 5699 5696 5693 5692 5691 5690 5689 5687 5684
5654 5658 5662 5689 5701 5705 5705 5701 5704 5707 5708 5709 5707 5708 5708 5707 5702 5703 5700 5700 5700 5697 5701 5700 5700 5701 5700 5700 5701 5701 5700 5700 5700 5700 5698 5694 5691 5689 5688 5687 5686 5684 5682
5674 5671 5671 5678 5685 5698 5696 5693 5701 5706 5705 5705 5704 5703 5702 5701 5701 5699 5699 5698 5698 5698 5698 5698 5697 5697 5697 5697 5697 5697 5698 5700 5700 5699 5698 5694 5690 5687 5686 5684 5683 5681 5680
5665 5668 5666 5664 5674 5684 5684 5686 5687 5695 5700 5698 5696 5694 5695 5695 5694 5693 5693 5692 5692 5690 5692 5693 5695 5694 5694 5693 5694 5694 5695 5697 5696 5696 5696 5694 5691 5686 5683 5681 5678 5676 5676
5669 5663 5658 5648 5661 5665 5674 5679 5681 5683 5687 5688 5690 5688 5690 5689 5689 5688 5689 5688 5687 5686 5687 5688 5690 5690 5690 5690 5689 5689 5689 5692 5694 5694 5693 5691 5687 5686 5683 5682 5679 5676 5671
5649 5660 5647 5642 5647 5655 5658 5665 5675 5679 5682 5680 5683 5683 5684 5683 5682 5682 5683 5683 5683 5684 5683 5684 5686 5684 5684 5685 5685 5687 5686 5687 5687 5688 5688 5687 5685 5685 5681 5679 5676 5673 5669
5640 5652 5645 5644 5644 5644 5649 5657 5665 5669 5673 5674 5677 5677 5678 5678 5675 5676 5678 5679 5680 5680 5679 5679 5679 5680 5680 5679 5680 5683 5681 5682 5683 5683 5683 5680 5678 5675 5674 5673 5669 5668 5663
5637 5642 5647 5642 5643 5642 5645 5650 5660 5663 5663 5666 5670 5672 5673 5672 5670 5669 5671 5673 5674 5675 5676 5676 5674 5677 5676 5676 5673 5675 5676 5677 5675 5676 5675 5672 5670 5666 5665 5665 5664 5661 5656
5632 5636 5643 5637 5634 5638 5646 5645 5650 5653 5660 5660 5661 5664 5665 5665 5665 5665 5666 5669 5668 5671 5672 5672 5673 5671 5670 5670 5664 5666 5668 5670 5670 5667 5664 5663 5661 5656 5653 5654 5653 5653 5648
5632 5633 5641 5637 5638 5640 5645 5648 5651 5649 5650 5650 5649 5652 5655 5659 5660 5659 5659 5661 5661 5662 5663 5665 5665 5661 5663 5664 5655 5655 5648 5657 5659 5656 5656 5652 5650 5646 5643 5641 5641 5638 5637
5630 5628 5633 5632 5631 5634 5640 5643 5644 5646 5643 5641 5644 5645 5650 5653 5653 5650 5652 5655 5653 5655 5652 5655 5654 5651 5649 5648 5647 5644 5641 5641 5646 5650 5644 5642 5639 5636 5633 5630 5629 5626 5622
5621 5626 5628 5631 5627 5628 5633 5634 5636 5638 5638 5644 5645 5640 5642 5642 5641 5640 5644 5645 5644 5645 5642 5642 5642 5638 5639 5637 5637 5637 5638 5635 5629 5630 5638 5635 5630 5626 5624 5625 5619 5614 5608
5615 5618 5621 5621 5621 5626 5627 5628 5630 5632 5635 5637 5636 5630 5632 5633 5634 5634 5636 5637 5637 5634 5636 5634 5633 5625 5626 5626 5624 5625 5626 5623 5623 5620 5622 5626 5623 5618 5613 5615 5611 5608 5601
5609 5611 5614 5616 5621 5624 5628 5630 5632 5631 5631 5625 5625 5624 5622 5624 5628 5632 5630 5634 5634 5627 5628 5631 5626 5622 5617 5615 5615 5613 5615 5614 5612 5611 5611 5612 5611 5611 5610 5606 5599 5595 5589